Location: Ste-F�licit�
(48.8999°N, 67.3360°W)
Time: 06:26:48
(UTC-05:00)

DELFI C3 - Pass Details

Date: 31 October 2020
Orbit: 532 x 551 km, 97.4° (Epoch: 28 November)

Event Time Altitude Azimuth Distance (km) Brightness Sun altitude
Exits shadow 19:33:30 11° 4° (N) 1,786 ? -24.1°
Drops below altitude 10° 19:33:38 10° 3° (N) 1,838 ? -24.1°
Sets 19:35:53 0° 355° (N) 2,735 ? -24.5°
